CAPE
0 0 0 0 0 0 0 0 0 0 0 0 0 0 0 0 0 0 0 0 0 0 0 0 0 0 0 0 0 0 0 0 0 0 0 0 0 0 0 0 0 0 0 0 0
0 0 0 0 0 0 0 0 0 0 0 0 0 0 0 0 0 0 0 0 0 0 0 0 0 0 0 0 0 0 0 0 0 0 0 0 0 0 0 0 0 0 0 0 0
0 0 0 0 0 0 0 0 0 0 0 0 0 0 0 0 0 0 0 0 0 0 0 0 0 0 0 0 0 0 0 0 0 0 0 0 0 0 0 0 0 0 0 0 0
0 0 0 0 0 0 0 0 0 0 0 0 0 0 0 0 0 0 0 0 0 0 0 0 0 0 0 0 0 0 0 0 0 0 0 0 0 0 0 0 0 0 0 0 0
0 0 0 0 0 0 0 0 0 0 0 0 0 0 0 0 0 0 0 0 0 0 0 0 0 0 0 0 0 0 0 0 0 0 0 0 0 0 0 0 0 0 0 0 0
0 0 0 0 0 0 0 0 0 0 0 0 0 0 0 0 0 0 0 0 0 0 0 0 0 0 0 0 0 0 0 0 0 0 0 0 0 0 0 0 0 0 0 0 0
0 0 0 0 0 0 0 0 0 0 0 0 0 0 0 0 0 0 0 0 0 0 0 0 0 0 0 0 0 0 0 0 0 0 0 0 0 0 0 0 0 0 0 0 0
0 0 0 0 0 0 0 0 0 0 0 0 0 0 0 0 0 0 0 0 0 0 0 0 0 0 0 0 0 0 0 0 0 0 0 0 0 0 0 0 0 0 0 0 0
0 0 0 0 0 0 0 0 0 0 0 0 0 0 0 0 0 0 0 0 0 0 0 0 0 0 0 0 0 0 0 0 0 0 0 0 0 0 0 0 0 0 0 0 0
2 0 0 0 0 0 0 0 0 0 0 0 0 2 0 0 0 0 0 0 0 0 0 0 0 0 0 0 0 0 0 0 0 0 0 0 0 0 0 0 0 0 0 0 0
5 1 0 0 0 0 0 0 0 0 2 0 0 0 0 0 0 0 0 0 0 0 0 0 0 0 0 0 0 0 0 0 0 0 0 0 0 0 0 0 0 0 0 0 0
14 1 0 0 0 0 1 8 0 0 0 0 0 0 0 0 0 0 0 0 0 0 0 0 0 0 0 0 0 0 0 0 0 0 0 0 0 0 0 0 0 0 0 0 0
7 2 2 0 0 1 8 1 0 0 0 0 0 0 0 0 0 0 0 0 0 0 0 0 0 3 0 0 0 0 0 0 0 0 0 0 0 0 0 0 0 0 0 0 0
13 0 1 0 0 13 23 2 24 41 29 0 0 0 0 0 0 0 0 0 0 0 0 0 0 0 0 0 0 0 0 0 0 0 0 0 0 0 0 0 0 0 0 0 0
37 13 5 0 5 8 40 57 3 24 7 0 0 0 0 0 0 0 0 0 0 0 0 0 0 0 0 0 0 0 0 0 0 0 0 0 0 0 0 0 0 0 0 0 0
1 20 19 0 54 4 10 0 0 20 2 0 0 0 0 0 0 0 0 0 0 0 0 0 0 0 0 0 0 0 0 0 0 0 0 0 0 0 0 0 0 0 0 0 0
10 11 15 2 29 9 12 0 0 12 7 0 7 0 0 1 13 1 0 0 0 0 0 0 0 0 0 0 0 0 0 0 0 0 0 0 0 0 0 0 0 0 0 0 0
10 6 31 20 2 1 0 9 0 2 0 0 1 1 0 0 8 0 0 0 0 0 0 0 0 0 0 0 0 0 0 0 0 0 0 0 0 0 0 0 0 0 0 0 0
15 13 39 27 30 0 6 0 0 0 0 0 5 1 3 1 0 0 0 0 0 0 0 0 0 0 0 0 0 0 0 0 1 0 0 0 0 0 0 0 0 0 0 0 0
32 23 21 30 42 2 3 0 0 0 0 0 2 0 3 3 2 4 3 0 0 0 0 0 13 0 0 0 0 0 0 9 5 2 3 0 0 0 0 0 0 0 0 0 0
39 22 21 57 1 6 0 0 3 0 0 0 0 0 4 11 0 0 0 0 0 0 0 4 2 0 0 0 0 0 0 1 1 0 2 0 0 0 0 0 0 0 0 0 0
9 6 6 68 0 0 0 0 0 16 0 0 3 10 3 3 1 0 0 0 0 0 0 2 7 0 0 0 0 0 0 0 3 0 5 0 0 0 0 0 0 0 0 0 0
9 7 0 42 0 0 0 4 0 0 0 0 0 7 24 10 1 0 6 0 0 0 1 0 12 8 7 0 0 0 0 0 0 0 0 0 0 0 0 0 0 0 0 0 0
0 5 3 46 0 0 1 0 1 0 0 0 0 0 1 0 0 0 0 0 0 0 0 0 0 0 0 0 0 0 0 0 2 0 0 0 0 0 0 0 0 0 0 0 0
0 1 0 0 0 2 9 2 2 3 3 1 0 0 0 2 4 1 3 0 0 0 0 0 0 1 3 0 0 0 0 0 0 0 0 0 0 0 0 0 0 0 0 0 0
1 1 11 10 6 4 4 0 2 6 1 0 0 0 0 0 0 1 2 0 4 0 0 0 5 2 3 0 0 0 0 0 2 0 0 0 0 0 0 0 0 0 0 0 0
4 16 44 20 4 2 0 4 4 0 6 0 0 0 0 0 0 3 1 1 3 5 5 0 4 3 2 0 0 0 0 0 0 0 0 0 0 0 0 0 0 0 0 0 0
CIN
0 0 0 0 0 0 0 0 0 0 0 0 0 0 0 0 0 0 0 0 0 0 0 0 0 0 0 0 0 0 0 0 0 0 0 0 0 0 0 0 0 0 0 0 0
0 0 0 0 0 0 0 0 0 0 0 0 0 0 0 0 0 0 0 0 0 0 0 0 0 0 0 0 0 0 0 0 0 0 0 0 0 0 0 0 0 0 0 0 0
0 0 0 0 0 0 0 0 0 0 0 0 0 0 0 0 0 0 0 0 0 0 0 0 0 0 0 0 0 0 0 0 0 0 0 0 0 0 0 0 0 0 0 0 0
0 0 0 0 0 0 0 0 0 0 0 0 0 0 0 0 0 0 0 0 0 0 0 0 0 0 0 0 0 0 0 0 0 0 0 0 0 0 0 0 0 0 0 0 0
0 0 0 0 0 0 0 0 0 0 0 0 0 0 0 0 0 0 0 0 0 0 0 0 0 0 0 0 0 0 0 0 0 0 0 0 0 0 0 0 0 0 0 0 0
0 0 0 0 0 0 0 0 0 0 0 0 0 0 0 0 0 0 0 0 0 0 0 0 0 0 0 0 0 0 0 0 0 0 0 0 0 0 0 0 0 0 0 0 0
0 0 0 0 0 0 0 0 0 0 0 0 0 0 0 0 0 0 0 0 0 0 0 0 0 0 0 0 0 0 0 0 0 0 0 0 0 0 0 0 0 0 0 0 0
0 0 0 0 0 0 0 0 0 0 0 0 0 0 0 0 0 0 0 0 0 0 0 0 0 0 0 0 0 0 0 0 0 0 0 0 0 0 0 0 0 0 0 0 0
0 0 0 0 0 0 0 0 0 0 0 0 0 0 0 0 0 0 0 0 0 0 0 0 0 0 0 0 0 0 0 0 0 0 0 0 0 0 0 0 0 0 0 0 0
-1 0 0 0 0 0 0 0 0 0 0 0 0 -1 0 0 0 0 0 0 0 0 0 0 0 0 0 0 0 0 0 0 0 0 0 0 0 0 0 0 0 0 0 0 0
0 0 0 0 0 0 0 0 0 0 0 0 0 0 0 0 0 0 0 0 0 0 0 0 0 0 0 0 0 0 0 0 0 0 0 0 0 0 0 0 0 0 0 0 0
-1 0 0 0 0 0 0 0 0 0 0 0 0 0 0 0 0 0 0 0 0 0 0 0 0 0 0 0 0 0 0 0 0 0 0 0 0 0 0 0 0 0 0 0 0
0 -1 0 0 0 0 0 0 -1 0 0 0 0 0 0 0 0 0 0 0 0 0 0 0 0 -2 0 0 0 0 0 0 0 0 0 0 0 0 0 0 0 0 0 0 0
-1 0 0 0 0 -1 0 0 -8 -13 0 0 0 0 0 -1 0 0 0 0 0 0 0 0 0 0 0 0 0 0 0 0 0 0 0 0 0 0 0 0 0 0 0 0 0
-1 0 0 0 -20 0 -1 -2 -18 -53 -1 0 0 0 0 0 0 0 0 0 0 0 0 0 0 0 0 0 0 0 0 0 0 0 0 0 0 0 0 0 0 0 0 0 0
0 0 0 -1 -5 -24 -9 -23 -22 -19 0 0 0 0 0 0 0 0 0 0 0 0 0 0 0 0 0 0 0 0 0 0 0 0 0 0 0 0 0 0 0 0 0 0 0
0 -4 -2 -27 -2 -11 -19 -3 0 0 -2 0 0 0 0 0 0 0 0 0 0 0 0 0 0 0 0 0 0 0 0 0 0 0 0 0 0 0 0 0 0 0 0 0 0
0 -2 -7 -2 -7 -2 0 -1 0 0 0 0 -1 0 0 -1 0 0 0 0 0 0 0 0 0 0 0 0 0 0 0 0 0 0 0 0 0 0 0 0 0 0 0 0 0
0 -1 0 -1 -4 -2 -1 0 0 0 0 0 -9 0 0 0 -2 0 0 0 0 0 0 0 0 0 0 0 0 0 0 0 -1 0 0 0 0 0 0 0 0 0 0 0 0
0 0 0 -12 -5 -2 0 0 0 0 0 0 -5 -1 0 0 0 0 0 0 0 0 0 0 -1 0 0 0 0 0 -1 -1 -3 -8 -1 0 0 0 0 0 0 0 0 0 0
0 0 -4 -6 0 -2 0 0 0 0 0 0 0 0 -1 0 0 0 0 0 0 0 0 -12 -8 0 0 0 0 0 0 -1 -1 0 -4 0 0 0 0 0 0 0 0 0 0
-1 0 -24 -5 -1 -1 0 0 -4 0 0 0 -4 -2 -1 -1 -1 0 0 0 0 0 0 -24 -3 0 0 0 0 0 0 -3 -10 -1 -5 -1 0 0 0 0 0 0 0 0 0
-1 -1 0 -2 0 0 0 0 -1 0 0 0 0 -2 0 -1 0 0 -1 0 0 0 -19 0 0 0 0 0 0 0 0 -7 0 0 0 0 0 0 0 0 0 0 0 0 0
0 -8 -7 -8 -1 0 0 0 0 0 0 0 0 0 -5 0 0 0 0 0 0 0 0 0 0 0 0 0 0 0 0 0 -10 0 0 0 0 0 0 0 0 0 0 0 0
0 0 0 0 0 0 0 0 0 0 0 0 0 0 -1 0 0 0 0 0 0 0 0 0 0 0 0 0 0 0 0 0 -1 0 0 0 0 0 0 0 0 0 0 0 0
0 0 0 -1 0 0 0 0 0 0 0 0 0 0 0 0 0 0 0 0 0 0 0 0 0 0 0 0 0 0 0 -1 0 0 0 0 0 0 0 0 0 0 0 0 0
-1 -3 -5 0 0 0 0 0 -1 0 0 0 0 0 0 0 -1 -1 -1 0 0 0 0 0 0 0 0 0 -1 0 0 0 0 0 0 0 0 0 0 0 0 0 0 0 0
Wind_Speed
16 16 14 13 13 12 11 9 8 7 7 8 9 11 12 14 18 15 15 7 3 4 6 11 10 11 13 13 14 13 9 13 17 19 17 15 18 14 17 13 13 11 9 10 6
19 18 17 15 14 13 11 10 9 8 6 7 9 11 13 13 15 19 8 8 4 6 7 14 11 11 9 12 11 10 11 19 19 19 19 19 18 16 16 18 16 14 11 5 11
21 20 18 17 15 13 12 11 9 8 6 7 8 10 12 14 12 4 5 7 3 3 11 11 9 9 13 15 16 17 17 18 18 22 21 20 21 17 16 18 15 17 15 13 13
22 21 20 18 16 15 12 11 9 8 7 7 8 9 11 6 7 6 8 6 2 4 8 9 8 12 14 15 15 19 20 20 23 18 20 18 16 18 17 18 17 17 15 12 11
23 22 21 20 18 15 14 12 11 9 8 6 8 7 9 9 19 10 8 6 6 8 9 10 12 12 16 13 17 21 22 20 21 19 17 16 17 20 20 20 18 17 11 9 6
25 24 22 21 19 17 15 13 11 10 8 5 6 7 8 17 10 12 10 11 9 12 12 12 12 14 17 19 19 21 23 21 17 20 18 21 21 18 18 17 14 11 7 4 4
26 25 23 22 20 18 16 14 12 10 8 5 5 7 12 21 3 5 6 9 11 11 11 12 9 10 10 13 10 15 18 19 20 21 22 20 19 14 21 12 7 6 3 1 5
27 26 25 23 20 18 16 13 12 10 8 5 4 8 12 13 21 25 18 14 14 12 9 9 3 8 11 13 17 18 20 20 20 23 20 7 13 14 6 7 7 4 6 12 10
25 27 26 24 21 19 16 14 12 9 4 5 6 9 16 7 18 23 18 21 15 14 11 9 10 15 12 14 15 15 18 22 21 14 13 13 14 12 10 7 10 15 13 6 6
19 27 26 26 24 20 20 16 12 9 5 7 9 6 13 17 16 17 19 19 15 10 9 12 9 11 15 14 16 17 20 20 18 16 10 12 14 12 12 16 14 14 12 9 8
13 31 29 28 27 27 22 13 9 3 10 13 14 17 8 11 6 13 13 16 17 15 16 17 13 18 21 21 23 22 21 22 20 18 18 16 16 14 14 16 17 15 10 1 11
22 19 31 29 31 34 22 19 25 3 10 25 26 24 23 17 12 14 16 16 20 17 19 14 19 20 22 19 21 18 20 21 22 19 18 17 14 15 20 21 20 12 12 15 12
23 21 19 29 33 26 29 32 16 18 7 13 31 32 25 21 15 18 22 21 20 21 22 22 15 23 20 18 19 20 21 19 21 21 18 17 20 22 9 10 19 17 15 11 10
19 17 16 27 23 22 28 23 8 8 6 13 23 14 27 23 28 23 22 18 13 22 20 20 22 20 14 17 17 21 17 19 19 15 14 14 13 13 8 9 17 14 10 8 8
20 18 22 28 8 23 18 20 7 3 8 9 28 13 19 31 12 27 24 22 22 22 17 19 15 16 22 25 18 18 15 15 17 16 18 16 14 9 17 18 14 10 11 8 10
19 25 21 25 15 22 21 16 7 10 15 8 11 23 22 32 30 6 24 24 20 21 24 24 16 20 25 18 21 21 20 16 14 11 15 15 15 2 9 18 14 11 8 6 7
18 21 19 19 22 20 21 14 11 19 8 13 14 18 28 28 29 26 28 30 23 17 26 24 27 25 24 15 17 10 11 6 9 9 12 9 15 9 12 15 15 10 7 7 6
17 16 18 15 12 24 16 16 13 15 30 11 20 21 28 27 31 30 26 28 27 24 12 20 22 30 21 24 18 19 18 9 10 12 14 17 12 8 17 17 14 9 6 7 11
15 10 13 16 17 19 19 23 16 22 26 15 22 25 27 27 15 28 31 25 29 27 21 16 21 16 23 16 21 18 24 16 18 16 11 8 12 11 16 15 13 11 11 10 9
9 9 15 14 21 18 21 16 15 23 19 30 19 21 25 30 26 27 26 23 28 32 28 13 11 8 11 17 22 24 10 16 7 6 9 9 11 8 12 11 10 12 11 12 14
11 8 9 17 14 20 23 14 9 26 20 33 29 20 25 24 29 30 21 15 33 28 27 9 3 11 13 15 16 9 7 5 7 7 4 5 5 10 10 9 11 11 12 14 14
13 13 6 18 15 12 21 12 12 18 27 4 15 23 21 25 29 24 30 24 26 23 31 7 4 9 19 3 9 16 11 7 5 5 1 3 9 6 7 12 13 14 14 14 13
9 14 5 18 16 10 4 5 8 14 14 10 9 17 21 21 14 25 22 9 5 15 17 12 10 7 3 7 12 11 9 6 8 2 8 6 6 9 7 15 14 15 14 15 14
7 10 5 13 16 12 14 11 7 6 10 7 8 8 11 4 5 9 6 7 7 8 7 5 6 9 10 5 10 16 13 11 7 5 5 16 22 15 17 17 16 14 14 13 15
6 6 8 11 14 17 19 18 14 9 5 9 7 20 14 6 5 8 10 12 5 2 6 3 5 6 6 7 7 12 13 16 15 14 10 9 20 17 15 17 13 14 14 16 17
6 7 7 18 19 20 20 17 25 11 13 14 11 18 19 14 12 19 15 13 7 8 8 3 4 4 4 9 8 10 14 17 19 20 23 22 24 18 19 14 10 13 14 15 15
9 12 11 21 18 15 12 16 24 21 3 14 17 13 9 9 11 14 11 11 14 10 6 6 7 4 4 11 11 12 16 20 19 20 18 20 16 14 14 12 11 12 13 16 15
Wind_Direction
218 215 217 211 211 211 211 219 225 239 266 295 310 316 320 327 311 285 258 256 96 13 325 266 241 244 232 248 250 257 261 261 265 271 296 328 322 331 335 313 308 295 256 255 294
216 217 216 213 209 210 211 215 224 223 252 281 304 314 320 332 302 280 253 125 85 39 262 260 250 234 250 254 238 213 248 249 266 302 313 328 322 323 317 303 298 304 299 296 214
215 213 215 213 205 208 208 212 217 228 236 272 300 314 321 325 292 291 146 125 90 307 241 274 284 284 258 264 250 236 247 265 279 286 315 309 299 298 299 292 300 307 316 311 304
214 210 209 209 206 203 203 206 210 221 243 272 293 315 319 293 279 87 158 136 73 292 287 260 258 259 259 265 260 264 260 263 268 286 299 294 295 294 286 283 284 283 283 280 275
211 208 205 204 203 198 196 199 197 208 231 262 293 324 299 233 252 139 158 157 200 226 252 264 269 278 271 275 280 273 270 278 281 280 279 290 278 280 279 277 276 279 275 271 269
207 207 204 201 197 194 191 189 195 196 218 245 280 318 245 254 267 143 195 186 225 236 243 249 259 271 281 280 276 284 291 287 295 288 280 278 276 274 274 277 265 283 275 345 350
209 203 200 198 194 190 185 184 185 188 200 220 268 271 260 241 279 279 239 252 247 246 257 259 273 270 275 266 293 295 292 287 275 269 267 264 274 268 261 291 207 266 262 87 231
211 205 196 196 191 184 175 173 168 177 180 205 266 262 257 263 242 252 239 234 238 247 249 286 295 279 278 289 290 277 273 270 271 262 251 200 262 278 328 6 271 216 272 281 305
224 206 198 191 181 174 161 150 153 151 158 192 231 221 264 278 230 241 237 237 236 227 239 255 245 244 253 248 260 246 256 266 281 274 212 214 256 277 291 229 244 266 284 299 297
241 212 198 186 177 163 137 131 119 121 218 212 258 283 244 248 236 224 232 228 229 226 212 219 219 230 216 237 238 250 242 245 250 256 268 271 271 299 304 287 269 263 256 237 244
261 218 199 184 168 145 123 118 128 202 225 203 193 215 235 243 141 204 198 196 208 205 209 195 207 223 228 225 246 263 272 279 291 305 299 283 280 286 279 268 268 258 265 130 79
238 239 195 186 165 157 161 194 189 146 205 220 249 224 251 279 205 228 173 183 191 206 208 193 222 230 232 241 238 245 259 264 266 278 273 278 288 291 273 262 253 261 68 61 57
229 221 226 181 167 165 186 196 177 245 266 214 219 227 226 227 233 212 186 204 194 208 210 224 221 221 236 251 245 243 253 270 284 287 291 299 279 273 219 121 89 85 87 74 58
212 208 204 194 166 184 202 189 182 171 254 243 213 236 223 232 233 242 190 202 224 219 226 244 231 237 217 233 262 250 250 255 266 288 280 297 289 279 259 107 101 96 90 67 42
233 219 206 186 162 187 184 183 148 70 234 193 214 162 184 203 133 208 229 205 221 220 212 216 213 239 250 250 221 260 266 268 284 282 287 263 263 242 240 139 126 114 88 69 49
294 217 223 190 202 191 165 157 119 170 215 232 202 201 187 201 212 203 201 205 221 247 228 236 240 248 257 247 251 242 245 259 268 274 260 253 242 354 232 127 131 114 99 79 75
275 237 207 194 199 164 150 151 190 198 154 208 195 191 199 194 205 214 192 201 202 206 229 232 231 236 243 239 244 217 212 228 222 216 249 226 228 188 97 109 125 125 98 62 44
262 271 205 207 180 153 159 176 198 172 201 159 180 192 195 188 205 205 208 207 201 215 221 218 235 224 216 219 219 207 206 198 222 224 253 236 234 222 112 128 122 101 70 20 7
274 264 237 201 193 163 173 200 182 192 209 213 177 185 197 203 187 206 210 215 205 212 213 215 229 219 209 196 222 204 219 224 273 285 286 251 274 288 79 71 48 27 7 359 349
250 248 248 199 190 187 188 193 193 205 188 203 196 198 188 197 199 197 189 214 215 207 225 244 238 218 153 171 216 236 250 208 216 192 223 251 257 261 62 39 21 6 355 346 342
224 234 204 183 186 194 199 189 186 208 220 191 214 192 201 195 197 194 197 213 198 198 212 192 230 176 159 205 193 181 230 179 209 225 247 273 240 85 50 30 7 344 334 332 321
197 218 189 158 203 207 201 166 170 192 212 283 225 216 212 202 197 206 207 202 188 203 194 124 138 191 193 183 268 210 204 161 186 199 206 323 241 33 40 12 342 324 320 314 321
183 207 231 172 209 202 222 117 165 165 182 170 177 228 224 227 219 206 190 8 115 153 167 154 156 131 173 328 269 213 213 123 101 77 206 209 247 137 350 339 319 311 319 309 317
154 190 219 197 199 191 174 166 131 191 155 164 158 213 187 67 83 167 128 175 173 147 66 162 161 202 192 110 162 205 209 192 139 190 228 233 271 277 301 300 302 305 306 333 341
183 184 194 170 181 179 180 163 144 140 124 161 180 196 164 129 120 161 138 143 101 54 106 98 139 155 114 178 191 199 205 201 202 219 225 239 255 278 280 278 301 297 334 340 327
192 148 209 169 147 170 173 182 167 138 153 186 187 194 186 169 183 167 146 159 149 145 103 52 108 102 167 217 231 245 241 222 221 223 227 241 250 256 267 285 309 338 340 315 319
195 154 184 160 163 166 176 162 179 146 32 192 166 148 163 165 107 114 87 81 130 135 121 117 128 133 168 213 231 253 232 239 242 245 252 255 270 284 284 311 331 337 320 314 315